• In France
  • List of Countries
  • For 7 days
  • Water Temperature
  • Satellite Maps
  • Weather Map
  • Weather Widgets
  • user-avatar
    Login

    Hourly Weather San Isidro

    Today, 20 February, Tuesday

    Time Temperature Precipitation Wind Pressure Humidity
    00:00 +20°C° 0 mm 1 mps 698 mmHg 77%
    01:00 +20°C° 0.1 mm 1 mps 697 mmHg 77%
    02:00 +20°C° 0.1 mm 1 mps 697 mmHg 76%
    03:00 +20°C° 0.1 mm 1 mps 697 mmHg 76%
    04:00 +20°C° 0 mm 1 mps 697 mmHg 75%
    05:00 +19°C° 0 mm 1 mps 697 mmHg 74%
    06:00 +19°C° 0 mm 2 mps 698 mmHg 74%
    07:00 +23°C° 0 mm 2 mps 698 mmHg 64%
    08:00 +26°C° 0 mm 2 mps 699 mmHg 54%
    09:00 +28°C° 0 mm 2 mps 700 mmHg 43%
    10:00 +29°C° 0 mm 2 mps 699 mmHg 44%
    11:00 +30°C° 0 mm 2 mps 699 mmHg 44%
    12:00 +31°C° 0 mm 2 mps 699 mmHg 44%
    13:00 +30°C° 0 mm 2 mps 699 mmHg 50%
    14:00 +29°C° 0 mm 2 mps 698 mmHg 56%
    15:00 +28°C° 0 mm 2 mps 698 mmHg 62%
    16:00 +27°C° 0.1 mm 2 mps 698 mmHg 71%
    17:00 +25°C° 0.1 mm 2 mps 698 mmHg 81%
    18:00 +23°C° 0.1 mm 1 mps 698 mmHg 90%
    19:00 +22°C° 0.1 mm 1 mps 698 mmHg 88%
    20:00 +22°C° 0.1 mm 1 mps 698 mmHg 86%
    21:00 +21°C° 0.1 mm 1 mps 698 mmHg 84%
    22:00 +21°C° 0.1 mm 1 mps 698 mmHg 83%
    23:00 +21°C° 0.1 mm 1 mps 698 mmHg 82%

    Tomorrow, 21 February, Wednesday

    Time Temperature Precipitation Wind Pressure Humidity
    00:00 +21°C° 0.1 mm 1 mps 698 mmHg 82%
    01:00 +21°C° 0.2 mm 1 mps 698 mmHg 83%
    02:00 +22°C° 0.2 mm 1 mps 698 mmHg 83%
    03:00 +22°C° 0.2 mm 1 mps 698 mmHg 84%
    04:00 +22°C° 0.1 mm 1 mps 698 mmHg 85%
    05:00 +21°C° 0.1 mm 1 mps 698 mmHg 85%
    06:00 +21°C° 0.1 mm 1 mps 698 mmHg 85%
    07:00 +24°C° 0 mm 1 mps 699 mmHg 78%
    08:00 +26°C° 0 mm 1 mps 700 mmHg 70%
    09:00 +28°C° 0 mm 1 mps 700 mmHg 62%
    10:00 +28°C° 0 mm 2 mps 700 mmHg 61%
    11:00 +29°C° 0 mm 2 mps 700 mmHg 60%
    12:00 +29°C° 0 mm 2 mps 700 mmHg 60%
    13:00 +28°C° 0.5 mm 2 mps 699 mmHg 64%
    14:00 +28°C° 0.5 mm 2 mps 698 mmHg 68%
    15:00 +27°C° 0.5 mm 2 mps 698 mmHg 71%
    16:00 +26°C° 0.5 mm 2 mps 698 mmHg 78%
    17:00 +24°C° 0.5 mm 1 mps 698 mmHg 85%
    18:00 +23°C° 0.5 mm 1 mps 698 mmHg 92%
    19:00 +22°C° 0.3 mm 1 mps 698 mmHg 90%
    20:00 +22°C° 0.3 mm 1 mps 699 mmHg 89%
    21:00 +21°C° 0.3 mm 1 mps 699 mmHg 87%
    22:00 +21°C° 0 mm 1 mps 699 mmHg 86%
    23:00 +21°C° 0 mm 1 mps 699 mmHg 84%

    Day after tomorrow, 22 February, Thursday

    Time Temperature Precipitation Wind Pressure Humidity
    00:00 +21°C° 0 mm 1 mps 699 mmHg 82%
    01:00 +21°C° 0 mm 1 mps 699 mmHg 82%
    02:00 +21°C° 0 mm 1 mps 698 mmHg 83%
    03:00 +21°C° 0 mm 1 mps 698 mmHg 83%
    04:00 +21°C° 0.1 mm 1 mps 698 mmHg 83%
    05:00 +21°C° 0.1 mm 1 mps 699 mmHg 84%
    06:00 +21°C° 0.1 mm 1 mps 699 mmHg 84%
    07:00 +23°C° 0.1 mm 1 mps 700 mmHg 78%
    08:00 +25°C° 0.1 mm 1 mps 700 mmHg 71%
    09:00 +27°C° 0.1 mm 1 mps 701 mmHg 64%
    10:00 +28°C° 0.1 mm 2 mps 701 mmHg 63%
    11:00 +28°C° 0.1 mm 2 mps 700 mmHg 62%
    12:00 +29°C° 0.1 mm 2 mps 700 mmHg 61%
    13:00 +28°C° 0.6 mm 2 mps 699 mmHg 66%
    14:00 +27°C° 0.6 mm 2 mps 698 mmHg 71%
    15:00 +26°C° 0.6 mm 2 mps 698 mmHg 76%
    16:00 +25°C° 0.7 mm 2 mps 698 mmHg 81%
    17:00 +24°C° 0.7 mm 1 mps 698 mmHg 86%
    18:00 +22°C° 0.7 mm 1 mps 698 mmHg 91%
    19:00 +22°C° 0.1 mm 1 mps 698 mmHg 89%
    20:00 +21°C° 0.1 mm 1 mps 699 mmHg 86%
    21:00 +20°C° 0.1 mm 1 mps 699 mmHg 84%
    22:00 +20°C° 0.5 mm 1 mps 699 mmHg 82%
    23:00 +20°C° 0.5 mm 1 mps 699 mmHg 81%

    23 February, Friday

    Time Temperature Precipitation Wind Pressure Humidity
    00:00 +20°C° 0.5 mm 1 mps 699 mmHg 79%
    01:00 +20°C° 0.1 mm 1 mps 698 mmHg 79%
    02:00 +20°C° 0.1 mm 1 mps 698 mmHg 80%
    03:00 +20°C° 0.1 mm 1 mps 698 mmHg 80%
    04:00 +21°C° 0.2 mm 1 mps 698 mmHg 81%
    05:00 +21°C° 0.2 mm 1 mps 698 mmHg 82%
    06:00 +21°C° 0.2 mm 1 mps 699 mmHg 84%
    07:00 +23°C° 0.2 mm 1 mps 699 mmHg 80%
    08:00 +24°C° 0.2 mm 1 mps 700 mmHg 77%
    09:00 +25°C° 0.2 mm 1 mps 701 mmHg 73%
    10:00 +26°C° 0.1 mm 2 mps 700 mmHg 68%
    11:00 +28°C° 0.1 mm 2 mps 700 mmHg 62%
    12:00 +29°C° 0.1 mm 2 mps 700 mmHg 57%
    13:00 +29°C° 0.1 mm 2 mps 699 mmHg 58%
    14:00 +28°C° 0.1 mm 2 mps 698 mmHg 59%
    15:00 +28°C° 0.1 mm 2 mps 697 mmHg 60%
    16:00 +26°C° 0.3 mm 2 mps 697 mmHg 69%
    17:00 +24°C° 0.3 mm 1 mps 697 mmHg 78%
    18:00 +22°C° 0.3 mm 1 mps 697 mmHg 87%
    19:00 +21°C° 0.2 mm 1 mps 698 mmHg 85%
    20:00 +21°C° 0.2 mm 1 mps 698 mmHg 82%
    21:00 +20°C° 0.2 mm 1 mps 698 mmHg 79%
    22:00 +20°C° 0.4 mm 1 mps 698 mmHg 78%
    23:00 +20°C° 0.4 mm 1 mps 698 mmHg 76%

    24 February, Saturday

    Time Temperature Precipitation Wind Pressure Humidity
    00:00 +20°C° 0.4 mm 1 mps 698 mmHg 75%
    01:00 +19°C° 0.1 mm 1 mps 697 mmHg 75%
    02:00 +19°C° 0.1 mm 1 mps 697 mmHg 76%
    03:00 +19°C° 0.1 mm 1 mps 697 mmHg 77%
    04:00 +19°C° 0 mm 1 mps 697 mmHg 77%
    05:00 +19°C° 0 mm 1 mps 697 mmHg 77%
    06:00 +19°C° 0 mm 1 mps 698 mmHg 78%
    07:00 +22°C° 0 mm 1 mps 698 mmHg 68%
    08:00 +25°C° 0 mm 1 mps 699 mmHg 58%
    09:00 +28°C° 0 mm 1 mps 700 mmHg 49%
    10:00 +29°C° 0 mm 1 mps 699 mmHg 48%
    11:00 +30°C° 0 mm 2 mps 699 mmHg 47%
    12:00 +31°C° 0 mm 2 mps 699 mmHg 46%
    13:00 +29°C° 0.4 mm 2 mps 698 mmHg 55%
    14:00 +28°C° 0.4 mm 2 mps 697 mmHg 64%
    15:00 +26°C° 0.4 mm 2 mps 696 mmHg 73%
    16:00 +25°C° 0.6 mm 1 mps 697 mmHg 80%
    17:00 +23°C° 0.6 mm 1 mps 697 mmHg 86%
    18:00 +22°C° 0.6 mm 1 mps 697 mmHg 93%
    19:00 +22°C° 0.3 mm 1 mps 697 mmHg 92%
    20:00 +22°C° 0.3 mm 1 mps 698 mmHg 92%
    21:00 +21°C° 0.3 mm 1 mps 698 mmHg 92%
    22:00 +21°C° 0.1 mm 1 mps 698 mmHg 91%
    23:00 +20°C° 0.1 mm 1 mps 698 mmHg 90%

    25 February, Sunday

    Time Temperature Precipitation Wind Pressure Humidity
    00:00 +20°C° 0.1 mm 1 mps 698 mmHg 88%
    01:00 +20°C° 0.3 mm 1 mps 698 mmHg 87%
    02:00 +19°C° 0.3 mm 1 mps 697 mmHg 85%
    03:00 +19°C° 0.3 mm 1 mps 697 mmHg 84%
    04:00 +19°C° 0 mm 1 mps 697 mmHg 82%
    05:00 +19°C° 0 mm 1 mps 698 mmHg 81%
    06:00 +19°C° 0 mm 1 mps 698 mmHg 79%
    07:00 +22°C° 0 mm 1 mps 699 mmHg 70%
    08:00 +25°C° 0 mm 1 mps 699 mmHg 61%
    09:00 +28°C° 0 mm 1 mps 700 mmHg 52%
    10:00 +28°C° 0.2 mm 1 mps 700 mmHg 56%
    11:00 +28°C° 0.2 mm 1 mps 699 mmHg 59%
    12:00 +28°C° 0.2 mm 1 mps 699 mmHg 62%
    13:00 +28°C° 0.9 mm 1 mps 698 mmHg 65%
    14:00 +27°C° 0.9 mm 1 mps 698 mmHg 68%
    15:00 +27°C° 0.9 mm 2 mps 697 mmHg 71%
    16:00 +25°C° 1.3 mm 1 mps 697 mmHg 78%
    17:00 +24°C° 1.3 mm 1 mps 697 mmHg 84%
    18:00 +22°C° 1.3 mm 1 mps 697 mmHg 91%
    19:00 +22°C° 0.4 mm 1 mps 698 mmHg 91%
    20:00 +22°C° 0.4 mm 1 mps 698 mmHg 91%
    21:00 +22°C° 0.4 mm 1 mps 699 mmHg 91%
    22:00 +22°C° 0 mm 1 mps 699 mmHg 90%
    23:00 +21°C° 0 mm 1 mps 698 mmHg 89%
    Show more